Simultaneous Nadir Overpasses (SNOs) Predictions

Prediction of SNOs between METOP-A and NOAA-19 Satellite Orbit:

Table of predicted SNOs for the next 14.0 days since TLE Epoch: 2/7/2020
Index Date (METOP-A) Time (METOP-A) Lat,Lon (METOP-A) SZA (METOP-A ) Date (NOAA-19) Time (NOAA-19) Lat,Lon (NOAA-19) SZA (NOAA-19 ) Distance(km) Time Diff (sec)
1 02/13/2020 03:38:03 80.31, 138.97 93.95 02/13/2020 03:37:02 80.31, 138.84 93.94 2.49 61
2 02/13/2020 04:28:45 -80.28, -53.96 86.10 02/13/2020 04:28:04 -80.31, -53.91 86.08 2.64 41
3 02/13/2020 05:19:25 80.30, 113.50 93.91 02/13/2020 05:19:02 80.29, 113.56 93.91 1.12 23
4 02/13/2020 06:10:06 -80.30, -79.12 86.10 02/13/2020 06:10:04 -80.29, -79.19 86.11 1.57 2
5 02/13/2020 07:00:47 80.28, 88.03 93.87 02/13/2020 07:01:03 80.30, 87.95 93.89 2.41 16
6 02/13/2020 07:51:28 -80.29,-104.59 86.14 02/13/2020 07:52:04 -80.28,-104.46 86.14 2.50 36
7 02/13/2020 08:42:09 80.27, 62.56 93.83 02/13/2020 08:43:03 80.29, 62.67 93.86 2.65 54




NCC Satellite Simultaneous Nadir Overpasses (SNOs) Prediction Service
